Theta_e
273 274 273 274 273 273 273 273 273 274 274 274 274 274 274 274 274 275 275 274 275 275 275 275 276 277 277 278 278 279 279 280 281 284 286 285 286 285 286 285 285 285 286 285 286 285 285 285 285 285 286 285 286 286 286 286 286 285 283 283 284 285 285 285 284 283 282 280 279 279 279 280 280 281 281 281 280 282 284 281 281 281 281 280 281
273 274 273 273 273 273 273 272 273 273 273 273 273 273 274 274 274 274 274 274 274 274 274 275 275 275 276 276 277 278 279 279 280 280 282 284 285 286 285 285 285 285 285 285 285 285 285 285 285 285 286 285 286 286 286 286 286 286 285 284 283 283 283 284 284 284 282 281 278 277 278 280 280 281 281 280 280 280 281 280 280 280 280 279 279
273 273 273 273 273 272 272 272 273 272 272 272 272 273 273 273 274 273 273 273 274 274 274 274 274 274 275 276 276 277 278 278 279 279 279 281 283 284 285 285 285 284 284 284 285 285 285 284 285 285 285 285 285 286 286 286 286 286 286 285 284 284 283 283 283 281 281 281 279 277 277 279 280 279 280 281 281 281 281 280 280 280 280 279 279
273 273 273 273 273 272 272 272 272 272 272 272 272 272 272 272 273 273 273 273 273 273 273 273 273 273 274 274 275 276 276 277 278 278 278 279 280 283 284 284 284 284 284 284 284 284 284 284 284 284 285 284 284 285 285 285 285 285 285 285 285 284 284 282 283 283 281 281 279 278 278 278 278 278 280 280 280 280 281 281 280 279 279 279 278
272 273 272 272 272 272 272 272 272 272 271 272 272 272 272 272 272 272 272 272 272 272 272 272 272 273 272 273 274 275 275 276 276 277 278 279 279 280 282 284 283 284 284 284 284 284 284 283 284 284 284 283 283 284 284 284 284 284 284 284 284 284 284 283 283 283 280 280 280 278 278 277 278 277 278 278 277 278 279 279 278 278 278 278 278
272 272 272 272 272 272 272 272 272 271 271 271 271 271 271 271 271 271 272 271 271 271 271 271 272 271 272 272 273 274 275 275 275 276 277 278 278 279 280 282 283 283 283 283 283 284 284 284 284 284 283 282 282 283 283 283 283 283 283 283 282 283 282 282 282 281 281 280 279 277 276 275 275 275 276 277 276 275 274 273 274 274 276 275 276
272 272 272 272 271 271 272 272 272 271 271 271 271 270 270 270 270 270 270 270 270 270 270 270 271 271 271 272 272 273 274 274 275 276 277 278 278 278 279 279 281 282 283 283 282 282 282 282 283 283 283 283 283 282 282 282 282 281 282 281 280 280 280 279 278 278 277 275 275 276 276 275 275 274 274 276 276 276 275 273 272 271 274 276 276
272 272 272 271 270 271 272 272 271 271 270 271 270 269 269 269 268 269 269 268 268 269 269 269 269 270 270 270 271 272 273 273 273 274 276 277 278 278 278 278 279 280 281 282 282 282 282 281 281 281 282 282 282 282 282 281 281 280 279 279 279 279 278 276 276 276 275 274 274 274 274 275 274 274 274 274 272 272 273 274 273 273 272 273 275
271 271 271 270 270 271 271 272 271 270 270 269 268 268 268 268 268 268 267 268 268 268 268 269 268 268 269 269 270 271 272 272 273 274 275 276 277 278 278 278 278 278 279 280 281 281 281 281 281 281 281 281 282 282 281 281 280 279 278 278 278 278 277 276 276 276 275 275 273 273 274 274 274 275 272 271 272 273 273 273 274 273 272 272 273
270 270 270 271 271 271 271 271 271 270 269 269 268 268 267 267 266 265 267 266 266 267 267 267 267 267 267 268 269 270 271 272 273 274 276 277 278 278 278 278 277 278 278 279 279 279 280 280 281 281 281 281 281 281 281 281 281 281 279 278 278 277 277 276 276 276 276 275 274 274 273 274 275 275 275 274 273 273 272 272 271 270 271 272 271
269 270 270 271 270 270 270 270 270 270 269 269 268 268 268 266 264 265 265 266 266 267 267 266 266 267 267 267 267 269 270 271 273 275 277 279 279 277 278 277 277 277 277 278 279 279 279 279 279 281 281 281 281 282 281 281 281 281 281 280 280 279 277 277 276 276 276 276 276 275 275 275 275 276 276 277 274 274 274 274 273 272 271 271 270
269 270 270 270 270 269 269 269 269 269 269 269 269 269 267 265 264 265 265 265 266 266 266 266 266 266 267 267 267 268 269 271 274 275 277 278 279 277 275 276 277 277 277 277 277 278 278 279 279 279 280 280 280 281 281 281 281 281 281 281 280 281 281 279 278 276 276 276 276 276 276 275 275 276 276 277 274 274 274 274 274 273 272 272 272
269 269 270 270 269 269 268 268 269 269 269 269 269 269 266 265 263 263 264 265 265 265 265 266 265 266 266 266 266 268 268 271 274 275 276 277 279 277 274 275 274 274 275 275 276 276 276 277 277 277 279 281 281 280 280 281 281 281 281 281 281 281 281 282 281 279 278 277 276 275 276 275 274 275 277 276 277 273 273 273 273 273 273 273 272
269 269 269 270 269 269 269 268 268 268 268 268 268 267 265 264 264 263 264 265 265 265 265 265 265 265 265 266 266 267 267 270 273 275 276 277 278 276 272 273 273 273 273 273 274 274 274 275 276 276 276 277 277 278 279 279 280 280 280 279 279 280 280 281 281 280 279 278 277 275 276 276 275 276 277 278 276 274 273 272 273 272 272 272 273
268 269 269 270 270 269 268 268 268 269 268 268 267 266 266 265 265 264 263 264 264 264 264 264 264 265 265 265 266 266 267 271 273 274 275 276 277 276 271 271 272 272 272 272 273 273 273 274 274 274 274 274 275 276 277 277 278 279 279 279 278 278 279 279 279 279 278 278 277 277 276 277 277 277 277 278 277 276 276 274 273 273 272 272 271
268 269 269 270 270 269 268 268 268 268 268 266 265 265 265 265 264 263 263 264 264 264 264 264 264 264 265 266 266 265 267 271 272 273 274 276 276 270 269 270 270 271 271 271 272 272 272 273 273 273 273 273 276 278 277 276 276 276 277 277 277 278 278 280 281 281 279 278 278 277 277 277 278 277 277 276 276 275 274 273 273 271 271 270 269
268 268 269 269 270 269 268 267 267 267 267 266 265 264 265 264 263 261 261 263 263 263 263 263 264 264 265 265 265 265 266 269 271 272 273 275 274 268 269 270 269 269 269 271 271 271 272 271 272 272 272 272 276 277 278 277 274 274 274 274 275 275 275 277 281 282 282 281 281 280 280 280 280 280 280 280 276 275 273 271 270 271 269 268 267
268 268 268 269 270 269 268 267 267 267 266 266 266 266 265 264 263 261 261 262 262 263 262 263 263 264 264 265 266 266 266 268 270 271 272 273 274 268 268 269 268 268 268 269 270 271 273 273 272 270 271 273 276 277 278 276 272 272 273 273 273 273 274 275 275 277 281 282 282 281 281 281 281 281 281 280 279 277 272 270 270 271 268 269 265
267 268 269 269 269 268 268 267 266 266 266 266 266 265 265 263 262 260 261 261 262 262 263 262 263 265 266 266 267 266 266 266 269 270 271 272 272 267 266 265 266 266 266 266 267 268 270 271 273 272 273 274 276 276 277 274 271 271 271 272 272 272 273 273 274 273 273 273 274 274 274 277 277 278 278 280 279 277 274 272 272 270 269 268 267
268 269 269 268 268 268 267 266 266 266 265 265 265 264 263 262 261 261 261 261 261 262 262 262 263 263 264 265 265 265 265 265 266 269 270 271 272 270 266 265 264 264 263 264 265 265 265 266 271 273 274 274 275 276 276 276 272 271 270 270 271 270 272 271 271 272 272 272 272 272 273 274 274 274 273 273 274 277 275 273 272 271 269 268 268
268 267 268 268 267 267 266 266 265 265 266 265 264 264 262 261 260 259 260 260 261 261 261 262 263 263 264 264 264 264 265 264 264 269 270 270 271 271 267 265 263 262 261 261 260 262 261 263 265 270 272 273 273 274 275 275 274 270 268 265 267 272 273 270 272 273 270 270 270 271 271 271 271 271 272 272 272 274 275 274 273 272 270 268 266
266 266 267 267 267 267 265 265 266 265 265 264 263 262 260 259 259 259 259 259 259 259 260 261 262 262 263 263 263 264 264 266 263 266 269 270 270 272 267 266 266 261 261 261 260 261 261 263 263 268 271 271 272 273 274 274 274 271 272 274 275 275 271 269 268 266 267 268 269 269 269 268 268 269 269 270 271 272 273 273 273 272 272 270 270
266 266 266 266 266 265 265 265 264 264 263 263 261 260 259 258 258 259 259 259 259 259 260 261 261 262 262 263 263 263 264 264 266 264 266 268 270 271 271 270 271 266 263 260 259 260 261 263 266 270 270 270 271 272 272 273 273 272 274 275 275 275 272 269 269 267 267 266 266 266 266 267 267 268 268 267 268 270 270 270 271 271 270 270 270
266 265 265 264 264 264 264 263 263 262 262 261 260 259 259 259 258 259 260 260 259 259 259 260 260 261 261 262 263 263 263 262 264 266 265 267 269 270 271 271 271 266 264 261 260 262 261 262 266 271 272 273 273 273 273 272 271 272 272 271 270 270 269 269 269 268 268 266 264 264 264 264 265 265 266 267 267 266 266 267 267 267 268 268 268
264 263 263 263 263 263 262 262 262 262 262 261 260 260 259 259 259 259 259 259 259 259 260 260 260 261 261 261 262 262 261 262 262 264 266 266 269 270 270 271 269 267 263 262 262 262 267 270 270 271 271 271 270 269 268 268 270 269 268 268 267 265 265 265 266 267 267 266 266 264 263 263 263 262 262 264 265 265 264 264 264 263 264 264 264
262 261 262 262 262 262 261 261 261 261 261 260 260 259 259 259 259 259 259 259 259 259 259 260 260 260 260 261 261 261 262 262 262 261 264 266 266 268 270 268 268 267 266 265 268 269 270 269 269 267 267 266 263 262 263 263 267 267 266 264 260 261 260 262 261 263 262 263 264 264 264 264 264 263 262 262 262 260 260 259 260 259 259 259 260
260 260 260 260 261 261 260 261 261 261 261 260 259 259 259 259 259 259 259 259 259 259 259 259 259 259 260 260 261 261 261 261 261 260 260 261 262 263 264 264 267 267 263 262 264 263 265 265 264 266 265 266 265 266 265 264 260 258 257 257 257 256 256 255 257 257 257 257 259 259 260 261 261 263 262 262 260 259 260 259 258 257 259 258 259
259 259 259 259 260 260 260 261 261 260 260 259 259 258 259 259 259 259 259 259 258 258 259 259 259 259 259 260 260 261 260 260 260 261 260 260 262 262 262 262 261 259 259 261 261 261 261 263 261 257 257 257 256 255 254 254 256 256 255 255 255 257 261 263 260 255 253 255 254 254 255 256 256 255 256 257 257 256 257 257 255 254 255 253 253
259 258 258 259 259 260 261 261 260 259 259 259 259 259 259 258 259 259 260 260 259 258 258 259 259 260 259 260 260 260 260 260 260 264 264 265 263 261 262 261 260 259 263 264 261 260 259 257 256 256 255 256 255 253 252 254 253 253 252 254 252 252 251 250 251 251 252 254 254 255 254 254 253 254 254 255 254 253 254 256 254 255 252 252 252
258 258 258 258 259 260 260 260 259 259 259 258 259 259 261 262 261 260 260 262 263 263 263 261 261 261 260 261 262 260 259 261 267 268 268 268 267 267 267 267 266 265 266 266 264 259 256 255 255 256 256 255 254 253 253 253 253 253 254 258 254 252 252 252 251 252 253 253 253 254 252 253 252 252 253 253 252 253 255 257 251 251 250 249 251
258 258 258 258 259 260 259 259 259 258 258 258 258 258 258 259 262 263 262 262 263 264 265 266 267 266 264 262 264 266 266 266 267 267 267 267 267 267 267 267 266 266 266 264 261 258 256 256 257 256 255 253 253 252 253 253 253 253 252 252 252 254 253 253 251 253 253 253 252 251 252 252 251 251 252 252 252 250 251 251 251 251 250 250 249
258 258 258 258 259 259 259 258 258 258 258 258 258 257 257 257 258 261 262 262 263 264 266 267 267 267 266 265 263 262 265 265 265 266 267 266 264 265 265 266 267 267 266 266 258 257 257 256 254 255 255 255 253 253 252 253 252 252 252 252 251 251 252 252 251 252 251 251 251 251 250 250 251 251 251 251 251 249 249 249 249 250 249 250 249
257 257 258 258 259 259 258 258 258 258 257 258 258 257 257 256 256 256 258 261 262 262 264 266 266 266 266 266 266 265 264 264 265 266 266 265 264 264 264 266 267 266 264 258 255 254 252 253 253 253 253 252 250 251 250 251 251 250 251 252 252 250 251 251 252 252 251 250 250 250 250 250 251 251 251 250 249 248 248 248 247 248 247 248 248
257 258 258 258 258 258 258 258 257 257 258 258 258 257 257 256 256 256 255 256 257 259 261 262 262 262 262 262 263 264 265 265 264 263 263 264 265 265 265 264 265 265 261 254 253 252 251 251 251 251 250 250 250 251 250 250 250 249 249 249 250 249 247 247 252 250 250 250 250 249 249 248 249 249 247 247 247 247 247 247 246 246 245 245 245
257 258 258 258 258 258 258 258 258 258 258 257 257 257 257 256 256 255 255 254 254 254 255 256 259 260 259 259 260 261 261 261 261 261 262 264 265 264 264 259 257 255 254 252 252 251 251 251 250 250 250 251 250 251 249 248 249 249 249 249 247 247 248 249 248 248 248 247 247 247 247 247 246 248 248 247 246 246 245 245 245 245 245 244 245
256 256 257 258 258 258 258 258 258 257 257 257 257 257 256 256 255 255 255 255 255 254 255 256 255 258 260 260 260 260 260 261 260 261 263 264 263 263 256 254 253 251 251 251 250 250 249 248 249 248 247 247 248 249 248 248 248 248 247 249 249 248 247 247 248 247 246 247 247 248 247 245 246 245 244 245 245 245 244 245 245 246 245 244 244
255 256 256 257 257 258 258 258 258 257 258 257 256 256 256 255 255 255 255 254 254 254 254 255 255 254 257 255 257 259 260 259 260 261 262 263 263 255 251 252 252 250 250 249 249 249 249 248 247 247 246 247 247 247 248 247 246 246 249 247 246 247 246 246 246 247 246 246 244 245 243 243 244 243 246 246 244 244 244 245 245 247 246 247 248
255 256 255 256 256 256 257 257 257 257 257 256 256 255 255 255 255 254 254 254 254 254 254 254 255 254 254 254 257 255 254 258 258 258 257 257 253 250 249 249 248 250 250 248 250 249 248 245 244 246 244 245 246 245 246 246 246 246 246 245 246 246 252 250 248 246 245 245 244 244 244 242 242 243 245 245 244 243 243 244 244 243 244 245 242
255 257 257 257 256 255 255 256 256 256 256 256 255 255 254 254 254 254 254 254 254 254 254 254 254 253 254 253 251 254 255 251 250 250 250 248 248 248 247 248 248 246 246 247 248 247 246 245 245 245 244 245 245 245 246 245 245 245 246 246 247 247 246 243 245 245 244 244 242 241 242 240 240 240 242 243 242 242 242 242 242 242 241 241 240
254 253 255 256 254 255 255 255 255 255 255 255 255 255 254 254 254 254 254 254 254 254 254 253 253 254 254 251 251 251 250 250 250 249 249 248 249 247 246 247 247 248 247 245 246 245 245 244 244 245 244 243 244 243 243 245 245 245 245 246 246 245 244 243 244 245 244 243 243 242 242 241 240 241 241 241 241 240 242 242 241 240 240 240 241
252 252 254 254 254 253 253 253 254 254 255 255 255 254 254 254 254 254 254 254 254 254 254 254 254 254 254 255 256 255 252 250 250 249 249 249 249 248 247 245 245 245 245 245 245 244 244 243 243 243 242 242 242 243 242 244 244 245 245 245 244 244 242 241 242 242 243 244 243 243 241 242 242 243 241 240 246 243 241 242 241 241 242 241 240
251 251 251 252 252 252 252 252 253 254 254 254 254 254 254 254 254 254 254 253 253 253 254 253 254 253 254 257 258 257 254 250 249 248 248 249 249 248 248 248 245 245 244 244 244 245 243 242 243 244 244 244 243 242 243 244 244 244 244 244 244 243 243 242 242 242 243 243 241 243 240 240 240 240 242 247 239 239 239 239 238 239 238 240 240
251 251 251 251 251 251 251 252 252 253 253 253 253 253 254 254 254 254 254 253 253 253 253 253 253 253 253 255 256 256 253 250 250 249 248 249 249 249 248 249 247 246 246 245 244 245 245 245 244 243 245 246 245 245 246 245 244 243 244 243 244 244 243 242 242 241 241 241 242 242 242 242 243 239 240 240 238 239 239 239 239 239 239 238 239
251 251 251 251 251 251 251 251 252 253 253 253 253 253 253 253 253 253 253 253 253 253 253 253 253 253 253 252 252 252 251 249 249 249 249 248 248 249 249 248 246 245 244 243 243 245 246 245 243 242 243 244 243 242 243 243 245 244 243 245 244 244 243 243 243 242 242 242 242 242 241 240 241 240 242 240 239 239 238 238 238 238 237 235 236
250 250 250 250 250 250 250 252 252 252 252 252 250 251 251 252 252 252 252 252 252 252 252 252 252 252 252 251 251 251 251 250 250 249 250 249 248 248 248 248 248 247 246 245 244 244 245 245 245 243 243 242 242 242 241 241 242 244 244 246 245 245 244 244 243 241 243 243 243 242 241 240 239 239 239 239 239 238 239 238 239 242 240 238 238
250 250 249 249 249 250 251 251 252 251 251 250 250 250 250 251 251 251 252 252 252 252 252 252 252 252 252 252 251 250 250 249 250 249 249 248 248 248 247 248 248 247 247 246 245 245 245 245 245 245 245 243 243 242 243 242 242 242 242 243 245 245 243 243 241 242 242 242 243 241 241 240 238 240 241 239 239 238 235 236 237 237 237 238 237
249 249 249 249 249 250 251 251 251 250 250 250 250 250 250 250 251 251 251 252 252 251 251 251 251 251 252 252 251 251 250 250 250 249 249 249 248 248 248 247 248 248 247 245 244 246 245 244 245 245 244 243 243 243 243 242 242 241 242 243 243 243 241 240 242 241 241 242 242 241 241 241 240 240 241 240 239 239 239 238 239 238 237 238 238
248 248 249 250 250 250 250 249 249 250 250 250 250 250 250 250 250 250 250 250 251 251 251 251 251 251 251 251 251 251 251 251 250 250 250 249 249 248 249 248 248 248 247 246 244 245 244 242 244 244 244 244 244 244 243 242 242 242 241 242 242 242 243 243 239 240 240 240 241 241 242 241 239 239 239 240 238 239 239 238 239 239 238 238 240
248 248 249 250 249 249 248 249 249 248 248 249 249 249 249 249 249 249 249 249 250 250 251 251 251 251 251 251 251 251 251 250 250 250 250 250 249 249 249 248 247 248 247 246 245 244 244 243 244 245 245 244 244 244 243 242 242 242 241 240 243 245 244 244 242 241 242 241 241 241 241 241 240 239 241 239 239 237 237 236 237 239 239 239 239
248 249 249 248 248 248 248 248 248 248 248 248 248 248 248 248 248 248 248 249 249 249 250 250 250 251 251 251 251 251 250 250 250 250 251 250 250 249 249 248 248 248 247 246 245 245 244 242 244 244 244 243 244 243 243 243 242 243 241 243 244 245 245 244 244 244 243 240 242 242 242 241 240 239 240 239 237 238 237 238 238 240 238 237 238
249 249 248 247 247 247 247 247 247 247 247 247 247 247 247 247 248 248 248 248 248 248 248 249 249 250 250 251 250 250 250 250 251 251 250 250 250 249 249 248 247 247 245 246 246 245 244 244 244 244 244 244 244 243 243 243 241 242 243 244 245 245 244 244 244 244 244 242 240 242 242 241 240 240 237 236 236 236 239 239 239 238 238 238 239
Wind_Speed
3 4 3 4 4 5 5 4 6 6 7 8 8 9 9 8 8 7 8 8 8 9 10 11 11 12 13 13 13 13 13 13 13 11 9 9 9 9 9 9 11 11 10 11 11 11 13 14 14 14 12 12 11 12 12 11 9 7 5 5 8 9 11 11 11 9 2 3 6 9 9 9 10 12 13 11 9 10 11 10 10 10 10 9 9
3 4 3 3 4 5 5 4 5 5 6 6 6 7 9 9 9 8 8 8 8 9 9 9 10 12 13 13 13 13 13 13 12 12 12 10 10 8 9 10 10 11 11 11 12 11 11 13 14 13 13 13 13 13 13 13 11 10 9 7 7 7 8 9 10 9 8 2 4 3 6 9 10 10 13 12 11 9 11 10 8 9 10 9 8
3 3 3 4 4 4 4 4 4 5 5 5 4 6 6 7 8 9 9 8 8 8 9 10 10 11 12 13 13 13 12 12 11 11 11 12 11 10 9 10 11 12 12 12 12 11 11 12 13 13 11 13 14 14 13 13 12 13 14 11 11 10 6 6 6 6 6 5 4 6 6 7 8 9 11 10 11 12 12 11 10 9 8 8 8
4 4 4 4 4 4 4 4 4 5 5 4 5 6 5 4 6 8 9 9 10 8 8 10 11 10 11 12 13 13 13 13 12 11 11 11 12 11 10 10 11 12 12 12 11 11 11 12 12 12 12 13 14 13 12 12 13 13 14 12 12 12 9 6 7 6 4 6 4 6 6 8 5 3 7 7 9 9 10 9 8 8 8 7 8
4 5 4 5 5 5 5 4 5 5 4 4 5 5 4 4 4 6 8 10 10 10 9 9 10 11 11 12 13 13 13 13 14 13 11 10 10 11 10 9 9 11 12 12 11 11 12 12 12 10 10 12 11 11 11 13 11 11 11 11 11 10 8 8 8 7 6 8 6 2 5 4 4 5 8 8 4 5 4 7 8 9 8 6 6
4 5 4 4 6 6 5 6 7 5 4 4 5 4 4 4 4 4 6 9 9 9 10 10 9 10 11 12 12 12 13 13 13 13 13 12 10 9 10 9 8 8 7 8 10 11 12 13 12 11 11 13 12 11 10 12 11 11 11 10 10 9 9 9 9 8 9 8 8 4 2 6 3 3 6 8 9 7 4 3 2 4 5 4 5
5 5 5 5 5 5 6 7 7 5 5 5 5 4 3 3 3 4 5 5 7 9 9 11 10 10 11 11 11 12 12 12 12 13 13 12 10 10 9 9 8 7 7 8 6 6 7 10 11 11 13 13 13 12 11 11 11 12 11 11 9 9 9 9 8 8 8 7 4 5 6 1 4 6 3 5 7 8 10 6 5 3 4 7 6
5 6 6 6 5 6 7 7 7 6 5 5 5 4 4 3 4 4 3 4 5 7 9 10 10 9 10 10 11 11 11 11 11 12 12 12 11 10 9 8 8 7 6 6 7 7 7 6 6 8 10 11 12 11 11 11 10 10 8 9 9 10 9 7 7 7 7 7 6 5 3 4 2 2 4 5 4 1 4 7 10 8 6 4 6
5 6 7 6 6 6 7 6 6 6 6 5 5 5 5 4 4 4 3 4 4 5 7 8 10 11 10 10 11 11 10 10 9 11 12 14 12 11 10 8 8 7 7 5 5 6 6 6 7 6 7 8 10 10 10 10 9 8 7 7 8 8 7 7 7 6 6 6 4 3 4 4 5 6 6 6 9 10 6 5 7 6 6 5 5
5 6 7 8 7 6 6 6 6 7 6 6 6 6 5 5 4 4 4 5 4 5 6 7 7 9 12 12 11 10 9 8 12 21 20 15 13 11 9 8 7 6 6 6 4 3 5 5 6 9 10 10 10 10 11 11 11 9 8 8 8 7 7 7 7 6 6 7 7 6 6 7 7 7 7 4 4 4 6 6 6 3 4 5 2
5 6 9 9 8 7 6 6 6 6 6 6 6 6 7 4 4 4 4 5 6 7 6 7 8 9 10 11 11 10 10 9 17 22 22 25 16 9 9 8 6 6 5 4 5 4 2 2 3 6 8 9 9 11 11 11 11 10 11 12 10 10 9 8 8 7 7 8 6 6 8 9 7 6 8 6 5 7 7 7 6 5 7 8 9
6 7 8 9 8 7 6 6 6 7 6 6 6 6 5 4 4 4 4 6 7 6 8 9 8 8 9 10 11 11 11 13 20 21 23 25 21 7 7 6 6 5 4 4 3 2 2 3 2 2 3 4 4 6 8 10 10 10 11 11 11 12 11 10 9 8 8 8 7 9 8 9 7 6 6 6 6 5 5 6 7 8 8 9 8
6 7 9 9 8 6 5 6 7 7 7 6 6 6 5 4 4 4 5 5 5 8 9 9 9 9 9 10 11 11 10 14 20 22 23 24 23 10 4 5 5 5 4 2 1 0 1 0 1 1 2 4 4 3 4 6 8 10 10 10 10 12 14 13 10 8 7 7 8 8 9 6 6 7 6 5 4 6 5 6 6 7 7 8 8
7 9 9 9 8 6 6 6 7 7 7 8 6 5 4 5 5 4 4 5 7 8 8 10 10 10 10 10 11 11 11 12 20 22 22 23 22 8 3 3 4 4 5 4 3 3 2 1 0 1 1 2 1 3 3 4 6 8 8 8 7 9 11 12 11 10 8 8 8 8 5 5 7 5 4 6 7 8 7 7 6 6 8 8 4
8 9 10 10 8 6 6 7 9 10 9 8 6 5 4 5 5 5 5 6 6 8 9 9 10 11 11 11 10 11 9 17 20 21 21 22 21 7 0 2 2 3 3 4 4 3 3 2 2 2 2 2 1 1 2 3 4 6 8 8 8 7 7 8 8 7 7 6 6 5 4 5 6 5 5 5 7 6 7 8 8 7 4 3 5
9 9 11 11 9 8 8 8 9 9 9 7 6 6 5 5 5 5 5 5 5 6 8 8 11 12 11 9 9 11 11 19 20 20 21 20 16 1 2 1 1 2 3 3 3 3 3 2 3 3 3 2 1 3 3 2 4 4 4 4 5 6 6 8 10 9 7 6 5 5 5 5 7 6 6 6 4 4 4 4 4 4 5 5 6
9 10 11 11 11 10 8 7 7 8 8 9 9 7 5 5 5 4 5 5 6 7 8 9 9 11 12 10 11 11 10 14 18 18 18 19 11 1 1 1 0 0 1 2 2 1 2 3 3 3 3 1 1 4 6 5 4 3 4 4 4 4 3 2 10 15 14 12 11 11 11 12 11 11 11 11 8 7 7 6 6 6 6 7 5
10 11 11 12 11 8 7 7 8 10 10 12 11 7 5 4 5 4 4 5 7 8 8 10 10 10 11 11 9 9 10 10 13 13 16 18 14 3 2 1 2 1 0 1 2 2 2 6 4 3 3 1 2 4 5 6 4 4 4 5 5 5 3 3 4 1 7 11 13 15 15 15 14 14 14 13 14 11 9 9 7 7 8 8 7
11 11 11 11 8 7 7 9 10 12 15 11 5 6 6 6 5 4 4 4 7 7 8 9 10 10 8 7 10 11 8 7 10 12 15 15 12 1 1 2 1 2 0 1 2 2 2 3 5 4 2 2 4 3 5 6 4 4 4 5 5 5 4 5 6 6 6 8 7 7 5 1 4 5 6 12 15 12 9 8 7 8 8 6 6
10 10 11 11 10 9 9 11 13 11 6 4 6 7 6 6 5 5 5 4 7 7 8 9 11 10 9 9 9 8 9 8 7 12 13 14 15 5 1 2 0 1 1 1 2 1 3 4 4 5 6 5 5 5 5 8 4 4 4 5 5 5 3 5 4 6 6 7 6 5 4 4 5 5 5 5 1 7 7 6 8 7 7 6 6
12 13 13 13 12 11 9 7 6 6 7 8 8 7 5 5 6 5 6 6 7 8 9 10 10 9 7 8 8 8 8 8 7 13 13 14 14 10 1 1 1 2 2 4 1 2 2 3 3 5 4 4 4 6 8 9 8 5 5 4 3 4 6 5 5 7 6 5 6 5 4 4 4 4 4 4 4 2 3 4 5 6 7 7 6
12 13 14 14 12 9 5 4 7 7 8 9 9 8 5 5 6 6 5 6 8 9 9 10 10 10 9 9 8 9 8 9 6 8 12 14 14 13 3 3 4 3 2 4 3 3 2 2 1 1 3 4 3 4 8 8 9 6 5 7 7 9 6 4 5 5 5 5 5 5 5 4 4 3 3 4 4 4 4 4 4 4 2 3 6
13 13 12 11 11 10 8 9 8 7 8 8 9 8 6 5 5 5 6 7 8 9 10 10 9 8 8 7 7 7 7 7 9 5 9 12 13 12 9 6 8 4 5 4 3 3 1 1 1 1 2 2 3 4 5 8 6 2 5 6 6 10 8 5 6 5 5 5 5 5 4 4 4 4 4 4 4 4 5 4 5 6 6 7 6
10 10 11 11 11 11 10 8 7 7 8 8 7 7 6 5 5 5 6 6 7 8 8 8 8 8 8 7 7 6 5 4 5 7 6 10 11 9 8 8 7 7 5 5 3 4 3 1 1 5 7 8 7 10 12 12 9 14 14 13 12 9 6 6 5 5 5 5 4 4 4 3 4 4 4 4 4 5 6 6 7 7 7 7 7
11 12 12 11 11 9 8 8 8 8 8 8 7 6 5 5 7 6 5 6 7 7 8 7 7 7 7 6 6 5 2 3 3 6 7 7 9 7 5 3 10 10 6 3 3 3 4 6 7 6 6 10 12 13 11 11 12 12 12 11 8 6 6 5 5 5 5 4 4 4 4 3 4 3 4 6 6 6 6 6 6 6 6 7 6
12 12 12 11 11 11 10 10 8 8 8 7 6 4 4 5 6 6 6 6 6 7 8 7 7 6 6 6 6 4 3 3 4 4 4 4 6 5 7 9 8 9 7 4 4 5 6 7 9 9 9 7 6 5 6 5 9 10 10 8 6 5 5 6 5 6 5 5 5 5 4 5 5 5 4 5 7 5 5 4 6 6 6 5 6
12 12 13 12 12 11 12 9 7 7 7 6 4 4 4 4 5 6 6 6 6 6 7 6 6 6 6 6 5 4 3 4 4 3 3 3 3 2 4 4 5 4 5 4 5 5 7 6 4 4 3 5 5 4 5 7 7 6 6 6 6 6 5 5 6 7 6 6 6 6 5 5 4 5 5 6 6 5 5 6 7 3 5 4 6
11 12 13 11 10 10 10 10 9 6 6 5 5 5 5 4 5 6 6 6 6 6 5 6 6 6 5 5 5 4 4 4 2 3 3 1 1 0 1 3 3 2 3 4 5 4 5 5 5 3 3 4 4 4 5 4 4 6 5 5 6 6 6 7 6 5 4 5 5 5 4 5 7 6 6 7 6 4 3 5 4 3 3 4 4
11 11 11 10 10 10 9 7 6 7 7 5 5 5 6 5 6 7 6 6 6 6 6 7 7 6 5 6 5 3 1 1 2 4 6 6 5 3 4 3 2 4 6 7 6 4 4 4 3 2 2 1 2 2 4 4 3 3 4 5 5 6 4 5 4 3 2 5 6 6 7 6 5 5 7 7 5 4 3 7 4 7 4 6 5
9 10 10 10 10 9 8 7 7 7 6 6 6 6 6 9 9 8 7 10 14 15 12 8 8 7 6 7 5 4 2 2 4 10 7 7 7 6 5 7 6 4 8 10 5 4 3 3 1 1 0 2 2 3 4 5 5 4 4 4 5 6 6 4 4 4 4 5 5 6 5 6 5 5 6 7 4 5 4 6 3 3 4 3 7
9 9 10 9 10 10 8 7 7 7 6 6 6 7 7 6 10 14 14 14 14 14 13 15 15 12 9 7 7 9 6 2 2 2 2 2 5 2 3 5 5 5 5 3 2 3 2 3 2 1 1 3 2 2 4 5 4 6 4 4 3 4 5 6 3 5 6 6 5 4 5 6 5 5 7 5 6 4 6 5 6 6 6 6 7
9 9 10 10 11 9 8 7 7 6 7 6 6 7 7 8 8 9 11 13 15 16 12 12 13 12 6 2 4 1 2 2 3 3 5 1 6 5 5 3 4 6 8 5 3 1 2 3 1 3 3 4 2 4 5 6 4 6 5 6 3 2 4 4 1 6 5 6 6 7 6 6 6 5 6 5 7 6 6 6 6 7 5 6 5
10 11 10 10 9 10 9 7 7 6 6 7 7 6 6 6 8 9 10 12 15 14 13 12 9 8 7 9 5 0 4 5 6 8 3 3 4 3 5 8 9 4 8 6 5 4 3 4 4 2 4 4 4 5 4 5 6 4 5 6 5 2 4 2 4 6 5 6 6 5 6 6 6 7 6 6 7 6 5 6 5 6 6 7 4
12 10 10 10 10 9 8 7 7 6 6 6 6 7 7 6 6 6 7 8 9 10 11 11 11 9 9 9 9 9 8 7 6 6 3 3 5 6 7 3 7 8 6 5 4 3 3 3 3 3 3 3 3 4 4 4 4 6 4 5 5 5 3 2 6 6 6 6 6 4 4 5 6 7 6 6 5 6 6 5 5 6 4 6 6
11 11 14 11 8 8 8 7 7 6 5 6 6 7 7 7 6 6 6 7 7 7 7 8 8 9 5 4 4 7 8 6 4 4 5 8 10 6 3 4 5 4 4 3 4 3 3 2 2 2 4 4 4 4 5 4 5 5 6 6 5 4 5 6 5 5 6 6 6 6 5 6 5 6 7 7 6 6 5 5 4 5 6 4 5
10 9 8 9 8 8 8 8 7 6 6 6 6 6 7 7 7 6 6 6 7 7 7 6 5 5 6 5 4 5 6 6 6 8 9 11 10 7 3 2 2 1 2 1 2 2 3 3 4 2 2 3 3 4 4 5 4 6 6 6 6 6 6 6 7 6 4 6 6 5 6 5 7 7 6 6 6 6 6 6 6 4 4 5 4
9 8 7 6 7 9 9 9 8 7 7 6 6 6 6 6 6 6 6 6 6 6 6 6 6 5 3 2 3 5 6 6 6 7 8 6 3 3 3 3 4 2 3 3 3 4 4 3 5 3 3 4 4 4 5 5 5 5 4 5 6 7 5 6 5 7 6 6 5 6 5 5 6 5 7 6 4 6 6 5 5 5 6 6 6
10 8 5 6 7 9 10 10 9 9 8 7 6 5 6 6 7 6 6 6 6 6 6 6 5 5 5 4 3 3 2 4 5 5 5 5 3 2 2 2 2 4 5 3 5 5 5 4 3 5 3 5 5 4 5 6 5 7 6 5 5 6 6 6 7 6 6 6 6 6 6 5 5 5 6 7 6 6 4 6 6 5 4 5 4
6 8 12 13 9 8 8 10 10 9 8 7 6 6 6 6 6 6 6 6 6 6 6 6 6 6 6 4 2 2 3 1 1 4 3 2 0 1 2 2 3 3 2 4 3 3 5 4 4 4 4 4 5 5 6 6 6 6 6 7 6 6 7 6 6 6 6 7 5 5 6 5 5 5 6 6 5 5 5 5 5 6 6 5 3
5 5 7 11 8 9 10 10 10 10 8 7 7 6 6 6 6 6 6 6 6 6 6 6 6 6 5 1 2 1 3 5 3 4 4 3 2 1 2 3 3 4 3 2 4 4 5 5 5 5 5 5 6 5 5 7 6 7 6 7 7 6 6 6 7 7 7 6 6 5 6 6 5 6 6 6 7 5 6 6 4 4 5 5 3
5 6 6 7 10 10 10 11 10 9 8 7 6 6 6 6 6 6 6 6 6 6 6 6 6 5 4 5 7 8 5 5 5 4 4 4 4 3 3 3 3 2 2 3 4 4 5 5 4 4 4 4 5 5 5 5 6 7 7 6 6 7 6 5 6 6 7 6 6 6 5 6 5 7 6 5 6 6 5 5 5 4 4 3 3
5 6 6 7 8 8 9 10 10 10 9 7 6 6 6 6 6 6 6 6 6 6 7 6 5 5 5 11 9 10 6 5 3 4 3 5 4 5 4 4 3 3 4 5 5 5 4 5 5 5 5 5 5 4 5 5 6 7 7 7 7 6 6 6 7 6 7 7 6 6 5 6 5 5 5 6 6 6 6 6 6 5 4 3 2
6 6 7 8 8 9 10 10 9 9 8 6 6 5 6 6 6 6 6 6 6 6 6 6 6 4 5 7 8 9 5 5 5 4 3 4 5 4 5 5 5 5 4 4 4 5 6 6 5 5 5 6 6 6 7 7 7 7 7 6 6 6 6 6 6 6 6 6 7 6 6 5 6 5 6 6 5 6 6 5 4 4 3 2 2
6 7 8 9 9 9 9 8 8 8 7 8 7 7 6 6 6 6 6 6 6 6 6 6 6 5 5 5 5 5 5 4 4 5 4 4 4 5 5 4 3 3 3 3 4 4 5 5 4 3 3 4 5 4 5 6 7 6 6 7 6 7 6 6 7 7 7 7 7 7 7 5 6 6 5 6 6 6 5 5 4 3 3 3 3
7 8 9 9 8 7 8 7 8 7 7 7 5 5 6 5 6 6 6 6 6 6 5 6 5 5 4 5 4 5 4 4 4 4 4 4 4 4 3 3 4 3 3 2 3 3 4 5 5 4 3 2 3 4 4 5 5 6 7 8 7 7 7 7 6 6 7 7 7 7 6 7 6 5 5 5 5 5 4 4 4 3 2 2 2
7 8 9 8 8 8 8 6 6 5 6 6 6 6 6 6 6 6 6 6 6 6 6 5 5 5 4 4 4 4 5 4 4 4 5 4 4 4 3 4 4 4 4 4 4 4 5 5 5 5 5 4 4 4 5 4 4 5 5 5 7 7 7 6 6 7 7 7 7 7 7 6 5 6 6 6 4 4 5 2 2 3 4 2 2
7 7 7 7 7 8 7 7 7 7 6 6 6 6 6 6 7 7 7 7 7 5 5 5 4 4 4 4 4 4 5 5 5 5 5 5 4 5 4 4 4 4 4 4 4 5 5 5 5 6 5 4 5 5 5 4 6 5 5 5 6 6 6 5 6 6 6 7 7 7 6 7 6 5 6 4 4 4 4 4 4 3 2 1 1
7 7 6 7 6 6 7 7 7 8 7 7 6 6 6 7 7 7 6 6 6 6 5 5 4 4 4 4 3 4 4 4 5 4 4 4 4 5 5 4 5 5 4 5 3 4 4 5 5 5 6 6 6 6 5 5 5 6 5 6 6 7 7 7 5 5 6 6 6 6 7 6 5 6 5 6 5 5 5 3 2 1 2 1 2
6 6 6 5 6 6 6 7 8 7 7 6 6 6 6 6 6 6 6 6 7 6 6 6 5 5 4 4 4 4 3 3 4 4 4 4 4 4 5 5 4 5 5 5 5 4 5 5 6 6 6 6 6 6 6 5 6 6 5 5 7 10 10 9 6 6 7 7 6 6 6 6 6 5 6 5 5 4 4 3 3 2 1 1 1
6 6 5 5 5 5 6 6 6 6 6 6 6 6 6 6 5 5 5 6 6 6 6 6 6 5 4 4 3 4 4 3 4 4 4 4 4 4 4 5 5 5 5 5 5 5 4 4 5 5 5 5 6 6 6 6 5 6 5 6 9 10 9 10 9 9 8 6 7 7 7 7 6 6 6 7 5 6 4 3 2 4 1 1 0
6 6 5 4 5 5 5 5 5 5 6 6 5 6 6 6 6 6 6 6 6 6 5 5 6 6 5 5 3 4 3 3 3 3 3 4 4 4 4 5 5 5 4 5 5 5 5 5 5 5 5 5 6 6 5 6 5 6 7 9 10 9 10 9 7 8 9 7 6 7 8 8 6 7 5 5 6 5 6 3 2 1 1 1 1
Wind_Direction
332 326 331 329 332 330 325 330 328 322 323 324 332 333 334 333 331 328 336 333 335 338 335 334 334 331 328 328 328 329 330 328 329 310 265 248 240 237 235 223 223 229 226 226 222 221 219 222 221 219 210 207 214 219 224 228 226 227 221 217 218 213 211 216 224 230 206 198 186 191 193 176 191 193 187 188 188 198 202 202 202 204 209 213 216
329 328 331 321 327 315 316 320 320 316 318 317 325 329 331 330 329 333 334 329 337 332 330 332 330 329 329 327 327 327 326 327 326 329 314 273 251 237 238 230 229 231 227 228 225 221 221 224 224 221 215 214 214 217 217 221 226 227 227 220 220 215 207 207 221 217 211 135 176 177 172 187 189 191 187 184 191 188 195 198 202 201 205 206 208
308 316 321 326 315 304 305 315 312 314 311 312 316 320 317 323 327 331 329 328 334 329 329 330 325 326 327 326 325 325 324 322 324 324 321 314 283 256 238 232 231 231 230 228 227 222 223 224 226 221 215 217 219 219 216 218 217 221 225 224 226 225 205 210 201 207 193 203 161 160 178 190 194 186 196 195 190 185 189 192 197 200 205 200 203
300 310 315 311 306 303 298 295 310 303 303 296 311 310 305 311 321 328 323 327 327 326 332 327 326 325 325 324 323 322 324 322 320 319 316 315 316 290 255 238 231 233 232 230 227 222 222 224 226 220 213 216 218 217 216 214 213 214 217 217 219 223 221 206 218 212 181 199 201 173 180 176 199 168 187 183 179 185 192 193 194 199 198 197 202
292 292 296 302 305 304 299 304 308 300 288 293 302 303 302 307 320 325 326 323 323 327 326 328 325 325 324 322 320 320 319 319 317 315 313 312 311 312 289 252 237 233 232 231 227 223 222 223 223 216 209 214 217 214 210 211 212 212 212 211 212 215 215 213 217 210 184 202 202 190 166 180 166 154 169 163 162 175 178 184 190 195 197 199 193
283 281 282 290 297 297 295 305 302 286 285 292 298 290 294 311 315 327 324 318 320 323 323 325 323 319 320 317 314 314 315 314 312 309 309 307 308 310 314 293 253 238 234 231 229 222 222 222 221 211 207 210 214 213 210 209 207 208 210 209 206 205 205 205 204 202 204 206 185 169 168 159 146 159 181 172 163 165 170 171 154 182 176 182 198
281 279 274 274 284 284 291 294 284 276 280 286 291 284 286 290 313 317 312 313 315 317 320 319 317 316 315 312 311 312 312 311 310 307 304 303 303 307 308 310 300 261 239 234 228 222 218 217 213 205 205 207 209 206 203 202 201 204 205 202 196 195 198 195 182 181 178 169 188 186 161 190 149 162 166 170 171 171 171 161 194 226 187 191 195
279 276 274 273 268 276 279 277 269 266 267 276 279 271 274 285 291 288 299 305 303 309 313 314 312 313 309 307 307 308 306 307 306 305 302 302 302 299 298 298 303 302 270 243 231 224 217 209 204 200 198 200 199 197 191 195 194 197 194 184 181 181 183 173 169 168 163 165 169 177 177 154 98 85 102 127 144 207 196 169 191 197 205 211 196
280 279 278 271 266 267 271 268 264 264 267 269 270 272 269 269 280 289 284 288 295 294 300 306 309 310 307 305 304 302 301 301 304 304 304 301 296 291 288 287 290 294 302 286 244 224 217 207 206 206 201 196 193 186 188 184 178 183 182 171 173 174 171 171 171 166 162 160 161 136 159 178 175 150 151 172 193 192 177 172 203 188 175 188 229
277 281 278 272 270 270 270 271 270 269 270 267 266 264 264 270 278 286 290 289 291 295 299 299 302 306 305 304 301 298 295 296 298 301 300 297 296 289 278 275 275 277 284 290 287 259 219 206 205 204 203 200 195 192 189 188 188 185 174 174 175 171 175 173 178 181 175 181 187 167 177 207 197 186 186 188 152 123 148 176 188 168 143 209 261
278 280 280 276 270 268 272 275 279 276 267 265 267 266 270 271 274 281 291 296 297 301 303 305 303 299 301 299 299 298 294 292 298 303 301 296 304 323 300 269 260 268 267 271 269 259 259 223 194 195 199 200 200 197 194 194 193 189 181 182 182 177 178 184 193 186 187 203 191 180 202 212 206 195 208 182 151 180 176 178 177 152 176 183 212
285 286 284 279 271 272 273 281 286 283 277 272 271 268 265 268 275 281 289 301 302 303 306 301 297 298 295 295 294 294 292 290 298 302 299 297 300 317 323 320 292 263 267 268 274 288 243 218 204 191 177 182 179 188 193 193 191 189 186 186 190 193 191 189 189 188 194 200 193 202 204 214 195 184 203 191 177 169 171 174 182 183 184 198 207
287 289 289 280 272 271 276 282 286 288 282 277 276 272 265 271 280 291 293 291 302 304 300 303 300 295 293 293 292 291 290 291 298 300 297 295 297 312 313 324 334 339 344 321 326 8 357 107 143 134 174 177 170 169 180 188 194 192 190 189 192 199 207 209 202 195 189 192 201 205 206 196 176 204 195 178 152 175 174 179 187 192 195 202 210
296 294 290 279 272 273 281 283 282 280 280 279 274 266 265 269 274 275 284 296 298 298 297 298 298 298 292 288 288 288 289 288 293 295 294 292 294 306 296 330 338 340 343 347 358 20 20 33 92 111 49 92 102 146 174 189 191 194 195 195 197 203 205 206 204 192 188 194 199 208 195 162 200 189 167 158 171 186 184 192 187 184 196 208 180
297 296 291 282 273 272 275 276 280 282 280 274 264 257 252 265 273 279 280 282 293 293 296 300 297 295 293 286 281 284 282 289 291 292 291 290 290 299 324 349 346 335 339 352 1 10 10 20 68 86 68 65 49 123 174 189 188 188 191 193 192 191 194 200 200 191 187 188 196 195 168 170 185 163 169 178 190 192 188 189 187 185 162 89 58
295 294 292 288 281 273 267 272 275 280 282 277 267 265 263 260 265 266 268 276 277 282 289 289 291 291 287 282 284 285 285 287 287 289 289 293 297 57 307 51 356 332 341 340 355 0 11 32 79 85 79 57 66 165 152 163 170 175 169 166 169 181 188 200 197 192 181 173 169 164 162 173 172 163 167 164 155 128 104 91 92 124 140 167 178
293 292 290 288 283 278 276 276 278 281 286 281 272 266 266 270 265 250 265 275 285 288 287 288 288 288 286 283 281 282 282 279 280 285 287 294 311 21 280 252 240 353 314 339 334 8 42 49 74 85 72 36 174 172 186 149 149 161 160 138 129 115 80 169 204 207 199 192 185 182 180 183 182 177 178 163 150 146 130 138 173 157 150 192 210
297 294 291 288 287 288 289 293 297 296 292 281 270 269 269 270 267 253 256 283 289 286 289 288 284 279 276 274 275 287 287 277 278 284 289 291 303 315 332 182 248 255 273 340 337 6 71 83 84 84 73 53 156 186 206 157 141 150 148 147 137 125 119 103 67 19 216 202 197 197 194 197 205 204 198 185 166 157 156 181 179 153 183 197 195
295 297 300 301 301 300 302 302 300 298 291 277 274 286 286 278 271 268 265 271 280 288 287 284 282 276 273 280 292 295 295 288 286 289 288 287 292 329 324 103 199 271 243 291 333 5 39 84 99 90 90 146 145 148 127 138 135 140 146 142 146 143 154 135 132 116 93 84 66 65 45 219 208 194 199 203 183 171 175 170 166 167 187 186 168
307 313 310 302 299 297 299 300 300 302 308 302 284 277 275 278 276 281 279 277 285 285 284 281 280 282 281 281 281 282 284 275 261 275 284 282 285 278 141 76 4 337 346 268 190 343 2 16 44 86 100 96 96 87 130 139 117 126 114 129 140 144 134 118 136 121 106 97 90 85 96 94 85 86 86 76 72 190 180 163 169 169 174 177 173
321 314 307 301 295 295 298 308 321 314 302 296 289 280 268 269 279 281 284 287 284 281 281 280 277 279 281 282 281 278 275 270 256 267 278 278 274 277 238 143 165 111 23 52 0 110 56 49 34 31 69 89 89 76 75 97 100 103 117 133 157 156 116 117 133 121 105 102 101 106 109 102 95 93 92 82 81 73 135 150 163 166 168 173 176
314 310 305 300 302 306 318 315 302 301 299 296 293 286 275 265 268 276 280 285 283 282 280 281 279 277 277 275 273 271 268 261 249 263 277 272 265 260 200 188 169 124 97 50 75 104 128 97 52 24 62 91 106 105 86 89 95 84 125 148 166 149 136 137 106 96 97 97 113 116 119 114 113 105 100 105 97 99 104 113 116 100 125 165 171
312 311 315 321 319 310 300 297 298 299 297 292 284 280 275 272 273 274 285 284 281 281 281 280 278 276 276 275 272 269 261 257 247 245 268 271 264 253 232 200 206 144 117 107 130 130 114 73 17 70 91 127 122 113 117 105 97 131 148 143 141 131 115 103 117 111 111 120 121 133 133 137 136 143 134 102 85 87 80 78 79 90 81 73 66
319 324 320 315 310 304 297 294 294 294 294 291 277 274 276 276 281 283 283 283 283 282 279 279 281 282 284 287 286 278 259 224 245 255 258 272 270 250 240 212 182 115 113 126 153 132 110 180 189 141 123 95 106 130 106 82 77 78 74 68 72 81 84 97 103 125 129 130 138 149 160 160 123 112 116 117 109 92 83 74 74 77 86 82 74
327 320 317 312 306 302 294 289 290 292 292 286 280 277 286 290 292 286 281 281 281 280 282 282 279 278 280 285 286 285 250 237 249 261 261 275 285 255 222 161 103 98 97 133 149 188 160 133 124 125 89 67 64 57 54 61 65 68 67 62 61 61 74 85 96 100 112 124 127 107 88 73 107 113 110 111 106 87 82 65 68 69 87 92 88
324 321 317 315 311 306 300 295 288 287 289 279 262 259 271 287 287 285 279 276 276 277 282 288 289 288 284 287 290 283 224 223 248 265 284 290 320 330 99 86 94 96 102 117 121 124 123 99 80 65 64 60 49 64 60 62 68 74 77 67 65 73 83 90 86 94 103 99 95 104 110 107 99 104 96 86 84 94 102 83 73 35 47 63 56
323 321 318 314 311 308 304 296 294 295 297 286 276 272 272 272 279 279 276 277 275 275 279 282 283 282 280 288 293 287 219 223 239 261 276 292 313 2 45 56 81 85 60 63 67 63 72 73 76 71 89 102 83 75 76 68 64 53 59 70 75 82 82 101 124 124 120 110 105 107 108 107 94 82 80 81 76 55 87 105 96 84 91 82 95
323 319 314 312 309 308 304 300 304 311 307 302 293 291 279 268 278 282 284 285 286 284 285 286 292 295 302 303 293 270 227 242 211 219 250 279 268 62 64 72 103 129 104 103 109 90 79 63 50 28 42 38 32 39 39 58 85 91 77 73 70 67 81 93 83 79 91 107 113 107 88 87 94 106 88 82 83 57 63 84 100 85 90 99 70
321 315 313 310 308 307 306 307 311 312 303 294 278 268 280 286 282 281 268 253 255 266 270 271 271 272 275 279 287 323 9 5 256 184 190 171 157 138 140 174 132 121 152 139 102 83 70 58 50 38 52 69 54 49 74 85 58 69 89 70 63 59 54 64 86 80 114 103 108 115 116 104 96 91 99 84 76 82 69 84 67 102 55 63 104
317 316 315 311 306 307 307 310 310 307 300 299 301 294 269 282 295 297 297 293 280 266 262 258 252 249 265 263 245 215 198 253 232 192 201 197 192 199 192 178 169 169 155 143 130 103 115 115 129 128 74 112 89 97 121 128 117 88 89 88 80 76 72 72 81 97 94 104 122 113 118 108 106 101 94 102 76 57 54 96 82 85 83 96 96
311 313 316 312 310 311 312 312 314 307 301 299 297 297 300 289 291 300 303 301 300 284 269 271 270 255 232 244 253 250 226 209 18 305 3 4 67 141 117 114 122 180 172 139 123 139 134 143 197 168 168 130 114 120 125 128 128 120 100 87 80 94 88 87 86 91 89 96 86 96 103 109 118 112 111 108 105 82 66 55 75 67 101 113 102
309 312 312 308 308 308 306 305 306 308 305 300 294 294 293 300 304 304 311 314 318 321 294 269 273 285 315 227 168 354 175 176 256 273 274 26 68 24 10 309 219 213 231 215 118 95 144 162 150 196 174 130 138 117 116 122 132 131 126 103 83 81 106 105 112 102 101 94 95 92 96 103 106 105 108 110 101 90 90 78 89 98 86 82 94
309 308 306 305 304 304 302 298 297 300 303 304 305 297 294 297 305 312 317 319 322 320 322 312 328 360 5 2 14 92 207 220 232 246 260 63 43 13 295 273 255 243 89 75 121 93 76 108 122 115 129 146 152 131 127 127 129 133 136 136 128 125 99 93 101 92 96 107 103 99 101 101 101 95 90 96 103 99 94 94 87 90 98 96 80
310 305 304 303 303 300 298 291 288 291 290 299 304 306 299 292 291 294 304 316 319 326 326 332 351 355 354 349 336 332 343 15 39 43 345 281 294 295 263 198 123 98 104 122 109 123 117 99 114 122 120 123 129 118 119 119 116 118 108 108 121 121 115 90 87 95 90 90 97 100 95 96 103 105 94 84 86 95 92 96 96 92 81 110 113
311 303 298 299 300 298 295 290 284 279 287 298 304 304 301 296 286 291 294 295 300 298 302 309 319 320 310 323 328 326 318 316 316 316 290 267 281 272 40 77 74 30 36 56 102 125 130 142 139 151 152 139 151 131 134 135 124 125 132 131 131 120 102 96 107 103 104 99 93 94 104 105 103 108 120 117 103 95 106 99 93 112 117 111 110
310 302 297 302 304 302 297 293 282 279 286 289 291 293 294 295 293 292 290 286 285 286 291 287 288 314 292 277 291 299 287 283 286 278 270 266 254 207 152 185 106 101 127 160 141 146 131 146 136 144 144 141 138 130 140 132 141 138 147 140 145 136 120 116 115 105 98 103 112 112 97 89 103 106 94 92 111 124 122 118 113 109 111 110 106
307 299 294 305 317 315 310 300 290 284 284 286 289 290 291 289 286 284 284 284 281 278 279 290 304 295 280 319 295 274 265 264 269 268 271 263 147 100 138 164 184 173 183 200 172 147 131 155 138 134 140 139 151 145 130 123 128 129 137 133 134 129 131 129 125 122 113 103 102 102 106 114 111 115 118 115 108 110 117 115 114 114 115 117 110
297 291 298 325 326 322 319 315 308 297 289 285 281 279 283 288 285 280 280 280 277 278 280 283 279 276 282 279 230 201 250 264 283 299 344 30 46 74 105 134 152 172 211 201 182 160 157 164 156 137 161 139 141 142 125 130 129 125 127 125 124 136 127 116 110 107 108 111 113 112 108 102 103 108 108 120 131 123 114 114 115 102 87 78 92
292 315 325 328 326 322 318 316 310 303 294 289 283 283 285 288 287 283 276 272 276 273 276 277 274 273 272 262 257 223 207 253 284 267 273 295 295 144 151 158 159 174 162 172 171 151 145 147 146 126 134 132 138 146 138 139 128 121 125 119 115 113 114 119 118 119 117 120 115 111 106 104 95 97 110 114 116 120 117 113 112 118 112 97 88
315 324 320 328 326 320 317 311 305 299 294 292 290 285 285 282 283 280 276 276 273 274 273 272 273 270 265 207 204 164 174 232 240 246 257 261 241 209 156 169 180 175 168 158 161 157 147 155 150 136 136 136 134 138 141 138 133 132 126 129 130 128 134 132 136 132 132 130 126 121 115 114 108 101 90 108 128 127 122 119 117 113 116 120 119
325 317 322 325 321 317 311 307 300 293 291 286 284 283 279 283 283 280 278 273 271 272 268 267 269 270 261 240 219 194 203 214 230 234 235 224 219 210 208 194 172 175 175 162 164 156 148 152 158 145 141 140 137 129 134 129 130 127 129 130 124 127 127 122 125 128 129 125 129 125 124 122 121 111 114 132 125 115 112 112 104 106 105 115 123
325 322 320 315 315 311 309 304 300 297 292 287 288 285 288 287 285 285 279 277 275 271 273 270 269 266 279 277 259 219 203 217 210 214 220 218 207 217 208 205 194 177 168 174 166 159 155 146 159 150 146 144 132 129 126 134 138 138 135 131 128 132 129 137 135 138 136 131 132 132 133 128 121 122 131 123 114 115 108 104 114 108 104 102 104
323 316 313 311 312 310 307 302 299 297 297 297 293 294 292 290 287 285 281 280 274 271 273 275 276 273 274 282 277 261 223 189 201 204 205 210 212 203 198 198 196 190 185 181 179 163 155 153 159 167 160 164 160 154 153 158 150 137 133 132 134 136 138 134 125 129 130 128 133 135 132 122 112 111 114 116 116 107 114 118 111 108 109 108 110
320 316 313 311 309 305 299 293 293 290 291 293 297 301 300 295 291 284 285 283 279 275 273 272 276 278 271 280 280 257 230 209 202 209 210 206 207 203 203 194 185 167 172 168 168 157 143 143 149 170 171 161 159 145 147 152 143 137 139 135 136 139 141 141 141 143 142 137 137 132 125 122 121 118 118 118 115 113 115 112 116 117 108 102 100
318 320 316 312 308 301 294 290 285 293 301 310 314 307 306 300 295 292 288 283 282 276 267 264 267 266 266 264 254 246 230 218 223 223 227 211 209 206 201 192 176 170 163 171 156 146 146 146 137 135 138 140 140 134 131 140 140 139 144 143 145 150 156 160 161 153 139 134 138 135 132 129 127 126 130 134 128 125 127 145 141 120 105 116 114
318 314 312 307 303 298 296 295 316 326 326 324 318 317 316 309 302 297 291 286 284 280 276 269 261 257 256 255 234 223 225 215 219 221 224 226 215 212 204 194 180 176 175 173 163 148 147 147 145 142 144 142 129 113 114 116 114 122 133 141 148 156 164 151 136 131 136 137 139 139 136 126 133 140 143 141 138 124 127 129 120 134 144 141 141
315 310 306 303 298 298 314 333 331 325 324 320 316 317 315 315 314 311 304 299 292 280 278 275 271 267 262 259 242 227 213 211 212 206 212 209 209 203 198 182 172 176 180 168 165 153 137 135 143 144 143 142 129 124 117 111 112 116 119 121 125 127 136 141 145 142 144 143 138 133 137 136 138 140 139 130 126 128 127 132 137 135 142 144 150
313 308 301 298 307 327 331 327 322 324 322 319 317 314 315 319 319 317 317 312 305 297 293 286 280 274 273 268 258 245 224 218 210 208 203 199 195 194 187 175 172 173 164 165 170 157 140 140 144 143 141 139 134 130 127 121 118 117 115 121 127 134 136 133 126 130 134 136 136 138 136 135 135 136 139 135 138 138 129 136 125 115 128 130 137
311 305 301 313 329 329 327 328 327 323 317 319 320 322 321 320 317 320 320 317 315 310 303 295 287 281 274 276 277 271 247 221 216 207 204 198 183 181 184 174 167 164 163 171 173 167 151 147 147 149 149 146 142 137 136 133 131 127 128 128 134 136 135 132 129 132 128 125 127 126 126 129 134 137 130 127 133 131 131 131 128 128 118 106 107
307 304 307 316 323 324 322 319 314 314 320 320 317 314 312 308 312 318 322 322 321 321 320 311 298 282 273 277 279 274 262 240 222 211 202 188 180 177 172 169 166 168 168 172 172 171 155 155 152 149 150 149 145 143 144 142 143 141 139 141 140 137 136 135 132 129 125 130 134 138 135 133 132 133 133 133 132 127 128 144 148 141 131 124 136
308 312 314 319 323 320 319 315 315 324 321 317 322 328 329 328 328 325 322 318 316 314 315 320 323 316 302 285 272 276 269 257 237 211 196 185 180 175 176 168 170 165 166 164 165 163 159 154 156 155 154 152 151 150 148 148 146 146 146 144 142 139 138 134 133 133 127 124 126 127 128 132 131 129 129 128 125 130 148 151 148 145 150 169 187